{"data":{"norad_id":63135,"epoch":"2026-05-25T01:56:44.136960Z","epoch_age_seconds":71200,"freshness":"FRESH","line1":"1 63135U 25043D   26145.08106640  .00197891  00000+0  15077-2 0  9991","line2":"2 63135  43.0009 150.5116 0003707 289.4783  70.5684 15.70860147 71369","mean_motion":15.70860147,"eccentricity":0.0003707,"inclination_deg":43.0009,"raan_deg":150.5116,"arg_perigee_deg":289.4783,"mean_anomaly_deg":70.5684,"bstar":0.0015077,"rev_number":7136,"period_min":91.66952276115,"perigee_km":353.94097152834,"apogee_km":358.93398504654,"semimajor_km":6734.5744782874,"source":"CELESTRAK","updated_at":"2026-05-25T13:38:19.914041Z"}}